Time,TemperatureF,DewpointF,PressureIn,WindDirection,WindDirectionDegrees,WindSpeedMPH,WindSpeedGustMPH,Humidity,HourlyPrecipIn,Conditions,Clouds,dailyrainin,SoftwareType,DateUTC
2013-07-24 00:01:00,58.7,53.6,29.86,ENE,59,1.8,3.4,83,0.00,,,0.00,WUHU216HW,2013-07-24 04:01:00,
2013-07-24 00:03:00,58.7,53.6,29.86,NE,38,1.8,2.5,83,0.00,,,0.00,WUHU216HW,2013-07-24 04:03:00,
2013-07-24 00:04:00,58.7,53.6,29.86,North,9,2.8,3.4,83,0.00,,,0.00,WUHU216HW,2013-07-24 04:04:00,
2013-07-24 00:07:00,58.7,53.6,29.86,NE,35,2.0,3.1,83,0.00,,,0.00,WUHU216HW,2013-07-24 04:07:00,
2013-07-24 00:12:00,58.7,53.6,29.87,North,10,2.0,5.1,83,0.00,,,0.00,WUHU216HW,2013-07-24 04:12:00,
2013-07-24 00:15:00,58.7,53.6,29.87,East,84,1.4,2.2,83,0.00,,,0.00,WUHU216HW,2013-07-24 04:15:00,
2013-07-24 00:20:00,58.7,53.6,29.87,ENE,63,0.4,0.4,83,0.00,,,0.00,WUHU216HW,2013-07-24 04:20:00,
2013-07-24 00:25:00,58.7,53.6,29.88,NE,52,1.1,1.1,83,0.00,,,0.00,WUHU216HW,2013-07-24 04:25:00,
2013-07-24 00:30:00,58.7,53.6,29.88,North,0,1.5,3.4,83,0.00,,,0.00,WUHU216HW,2013-07-24 04:30:00,
2013-07-24 00:35:00,58.7,53.6,29.88,NE,38,1.6,3.1,83,0.00,,,0.00,WUHU216HW,2013-07-24 04:35:00,
2013-07-24 00:40:00,58.7,53.6,29.88,NNE,24,2.6,3.8,83,0.00,,,0.00,WUHU216HW,2013-07-24 04:40:00,
2013-07-24 00:45:00,58.7,53.6,29.88,NE,38,1.0,1.1,83,0.00,,,0.00,WUHU216HW,2013-07-24 04:45:00,
2013-07-24 00:50:00,58.7,53.6,29.88,East,87,0.6,0.7,83,0.00,,,0.00,WUHU216HW,2013-07-24 04:50:00,
2013-07-24 00:55:00,58.7,53.6,29.89,NE,34,1.3,1.6,83,0.00,,,0.00,WUHU216HW,2013-07-24 04:55:00,
2013-07-24 01:00:00,58.7,53.6,29.89,NNE,33,1.2,1.8,83,0.00,,,0.00,WUHU216HW,2013-07-24 05:00:00,
2013-07-24 01:05:00,58.5,53.4,29.89,ENE,71,1.0,1.1,83,0.00,,,0.00,WUHU216HW,2013-07-24 05:05:00,
2013-07-24 01:10:00,58.5,53.4,29.88,ESE,104,0.7,0.9,83,0.00,,,0.00,WUHU216HW,2013-07-24 05:10:00,
2013-07-24 01:15:00,58.5,53.4,29.89,North,0,0.5,0.7,83,0.00,,,0.00,WUHU216HW,2013-07-24 05:15:00,
2013-07-24 01:21:00,58.3,53.2,29.89,ENE,73,0.4,0.7,83,0.00,,,0.00,WUHU216HW,2013-07-24 05:21:00,
2013-07-24 01:26:00,58.3,53.6,29.89,North,9,1.4,3.1,84,0.00,,,0.00,WUHU216HW,2013-07-24 05:26:00,
2013-07-24 01:31:00,58.3,53.2,29.89,NNW,338,0.5,2.7,83,0.00,,,0.00,WUHU216HW,2013-07-24 05:31:00,
2013-07-24 01:36:00,58.3,53.2,29.89,ESE,108,0.8,1.1,83,0.00,,,0.00,WUHU216HW,2013-07-24 05:36:00,
2013-07-24 01:41:00,58.1,53.4,29.89,North,0,0.5,1.1,84,0.00,,,0.00,WUHU216HW,2013-07-24 05:41:00,
2013-07-24 01:46:00,58.1,53.4,29.89,NNE,29,0.4,0.9,84,0.00,,,0.00,WUHU216HW,2013-07-24 05:46:00,
2013-07-24 01:51:00,58.1,53.4,29.89,NNE,23,0.5,0.9,84,0.00,,,0.00,WUHU216HW,2013-07-24 05:51:00,
2013-07-24 01:56:00,58.1,53.4,29.89,NE,48,1.4,1.8,84,0.00,,,0.00,WUHU216HW,2013-07-24 05:56:00,
2013-07-24 02:01:00,58.0,53.3,29.89,NNW,338,0.2,0.4,84,0.00,,,0.00,WUHU216HW,2013-07-24 06:01:00,
2013-07-24 02:06:00,58.0,53.3,29.90,NNE,23,0.2,0.9,84,0.00,,,0.00,WUHU216HW,2013-07-24 06:06:00,
2013-07-24 02:11:00,58.0,52.9,29.89,SW,228,0.4,0.7,83,0.00,,,0.00,WUHU216HW,2013-07-24 06:11:00,
2013-07-24 02:16:00,58.0,52.9,29.90,NNW,339,0.4,0.7,83,0.00,,,0.00,WUHU216HW,2013-07-24 06:16:00,
2013-07-24 02:21:00,58.0,52.9,29.90,NNE,29,2.0,2.5,83,0.00,,,0.00,WUHU216HW,2013-07-24 06:21:00,
2013-07-24 02:26:00,57.8,52.7,29.89,SW,220,1.7,2.0,83,0.00,,,0.00,WUHU216HW,2013-07-24 06:26:00,
2013-07-24 02:31:00,57.8,52.7,29.89,NNE,23,0.7,1.1,83,0.00,,,0.00,WUHU216HW,2013-07-24 06:31:00,
2013-07-24 02:37:00,57.8,52.7,29.89,NE,50,0.2,0.7,83,0.00,,,0.00,WUHU216HW,2013-07-24 06:37:00,
2013-07-24 02:42:00,57.6,52.9,29.89,NE,34,0.4,0.4,84,0.00,,,0.00,WUHU216HW,2013-07-24 06:42:00,
2013-07-24 02:47:00,57.6,52.9,29.89,NNW,338,0.1,0.4,84,0.00,,,0.00,WUHU216HW,2013-07-24 06:47:00,
2013-07-24 02:52:00,57.6,52.9,29.89,NE,45,1.3,1.8,84,0.00,,,0.00,WUHU216HW,2013-07-24 06:52:00,
2013-07-24 02:57:00,57.4,52.7,29.89,ENE,68,0.4,0.9,84,0.00,,,0.00,WUHU216HW,2013-07-24 06:57:00,
2013-07-24 03:02:00,57.2,52.2,29.89,North,359,1.7,2.7,83,0.00,,,0.00,WUHU216HW,2013-07-24 07:02:00,
2013-07-24 03:07:00,57.2,52.5,29.89,NNE,23,0.3,0.7,84,0.00,,,0.00,WUHU216HW,2013-07-24 07:07:00,
2013-07-24 03:12:00,57.1,52.4,29.89,NE,43,1.7,3.6,84,0.00,,,0.00,WUHU216HW,2013-07-24 07:12:00,
2013-07-24 03:17:00,57.1,52.1,29.89,NNE,26,0.9,2.9,83,0.00,,,0.00,WUHU216HW,2013-07-24 07:17:00,
2013-07-24 03:22:00,56.9,51.9,29.89,NE,35,3.4,4.7,83,0.00,,,0.00,WUHU216HW,2013-07-24 07:22:00,
2013-07-24 03:27:00,56.9,51.9,29.89,NNE,20,1.3,1.6,83,0.00,,,0.00,WUHU216HW,2013-07-24 07:27:00,
2013-07-24 03:32:00,56.7,51.7,29.89,NE,43,1.5,2.2,83,0.00,,,0.00,WUHU216HW,2013-07-24 07:32:00,
2013-07-24 03:37:00,56.5,51.8,29.89,North,0,2.3,3.1,84,0.00,,,0.00,WUHU216HW,2013-07-24 07:37:00,
2013-07-24 03:42:00,56.3,51.6,29.89,NNE,23,0.8,1.8,84,0.00,,,0.00,WUHU216HW,2013-07-24 07:42:00,
2013-07-24 03:48:00,56.2,51.5,29.89,NE,38,3.8,5.4,84,0.00,,,0.00,WUHU216HW,2013-07-24 07:48:00,
2013-07-24 03:53:00,56.2,51.5,29.89,NNE,20,0.9,1.1,84,0.00,,,0.00,WUHU216HW,2013-07-24 07:53:00,
2013-07-24 03:58:00,56.2,51.5,29.89,North,358,1.3,2.2,84,0.00,,,0.00,WUHU216HW,2013-07-24 07:58:00,
2013-07-24 04:03:00,56.0,51.3,29.89,NE,43,1.0,1.3,84,0.00,,,0.00,WUHU216HW,2013-07-24 08:03:00,
2013-07-24 04:08:00,55.8,51.1,29.89,NE,45,0.6,0.9,84,0.00,,,0.00,WUHU216HW,2013-07-24 08:08:00,
2013-07-24 04:13:00,55.6,51.3,29.89,North,0,0.0,0.0,85,0.00,,,0.00,WUHU216HW,2013-07-24 08:13:00,
2013-07-24 04:18:00,55.4,51.1,29.89,NNW,340,2.7,3.6,85,0.00,,,0.00,WUHU216HW,2013-07-24 08:18:00,
2013-07-24 04:23:00,55.4,51.1,29.89,NNE,26,0.8,1.3,85,0.00,,,0.00,WUHU216HW,2013-07-24 08:23:00,
2013-07-24 04:28:00,55.4,51.1,29.89,NE,56,0.7,0.9,85,0.00,,,0.00,WUHU216HW,2013-07-24 08:28:00,
2013-07-24 04:33:00,55.4,51.1,29.90,NE,34,0.6,1.1,85,0.00,,,0.00,WUHU216HW,2013-07-24 08:33:00,
2013-07-24 04:38:00,55.4,51.1,29.89,NNE,30,0.8,1.1,85,0.00,,,0.00,WUHU216HW,2013-07-24 08:38:00,
2013-07-24 04:44:00,55.4,51.1,29.90,ENE,68,1.5,1.8,85,0.00,,,0.00,WUHU216HW,2013-07-24 08:44:00,
2013-07-24 04:49:00,55.4,51.1,29.90,North,359,1.8,4.3,85,0.00,,,0.00,WUHU216HW,2013-07-24 08:49:00,
2013-07-24 04:54:00,55.4,51.1,29.89,NNE,23,0.5,0.7,85,0.00,,,0.00,WUHU216HW,2013-07-24 08:54:00,
2013-07-24 04:59:00,55.1,50.8,29.90,NNE,23,0.1,0.2,85,0.00,,,0.00,WUHU216HW,2013-07-24 08:59:00,
2013-07-24 05:04:00,54.5,50.2,29.90,NNW,338,0.1,0.4,85,0.00,,,0.00,WUHU216HW,2013-07-24 09:04:00,
2013-07-24 05:09:00,54.2,49.6,29.90,North,0,0.2,0.4,84,0.00,,,0.00,WUHU216HW,2013-07-24 09:09:00,
2013-07-24 05:14:00,53.6,49.3,29.90,North,0,0.2,0.4,85,0.00,,,0.00,WUHU216HW,2013-07-24 09:14:00,
2013-07-24 05:19:00,53.3,49.4,29.90,North,2,0.8,1.1,87,0.00,,,0.00,WUHU216HW,2013-07-24 09:19:00,
2013-07-24 05:24:00,52.9,49.0,29.90,NE,41,0.4,0.9,87,0.00,,,0.00,WUHU216HW,2013-07-24 09:24:00,
2013-07-24 05:29:00,52.4,48.8,29.91,NNE,23,0.0,0.2,88,0.00,,,0.00,WUHU216HW,2013-07-24 09:29:00,
2013-07-24 05:34:00,52.2,48.6,29.91,North,0,0.0,0.0,88,0.00,,,0.00,WUHU216HW,2013-07-24 09:34:00,
2013-07-24 05:39:00,51.7,48.1,29.91,NNE,23,0.1,0.4,88,0.00,,,0.00,WUHU216HW,2013-07-24 09:39:00,
2013-07-24 05:44:00,51.5,48.3,29.91,North,0,0.0,0.0,89,0.00,,,0.00,WUHU216HW,2013-07-24 09:44:00,
2013-07-24 05:49:00,51.1,47.9,29.91,North,0,0.0,0.0,89,0.00,,,0.00,WUHU216HW,2013-07-24 09:49:00,
2013-07-24 05:55:00,50.8,47.9,29.91,East,90,0.1,0.4,90,0.00,,,0.00,WUHU216HW,2013-07-24 09:55:00,
2013-07-24 06:00:00,50.4,47.5,29.92,NNE,23,0.3,0.4,90,0.00,,,0.00,WUHU216HW,2013-07-24 10:00:00,
2013-07-24 06:05:00,50.2,47.6,29.92,North,0,0.0,0.0,91,0.00,,,0.00,WUHU216HW,2013-07-24 10:05:00,
2013-07-24 06:10:00,50.0,47.4,29.92,North,0,0.3,0.4,91,0.00,,,0.00,WUHU216HW,2013-07-24 10:10:00,
2013-07-24 06:15:00,49.7,47.5,29.92,North,0,0.0,0.0,92,0.00,,,0.00,WUHU216HW,2013-07-24 10:15:00,
2013-07-24 06:20:00,49.5,47.3,29.93,North,0,0.0,0.0,92,0.00,,,0.00,WUHU216HW,2013-07-24 10:20:00,
2013-07-24 06:25:00,49.3,47.1,29.93,SE,135,0.2,0.4,92,0.00,,,0.00,WUHU216HW,2013-07-24 10:25:00,
2013-07-24 06:30:00,49.0,46.8,29.93,North,0,0.0,0.0,92,0.00,,,0.00,WUHU216HW,2013-07-24 10:30:00,
2013-07-24 06:35:00,49.0,47.1,29.93,North,0,0.0,0.0,93,0.00,,,0.00,WUHU216HW,2013-07-24 10:35:00,
2013-07-24 06:40:00,48.6,46.7,29.93,North,0,0.0,0.0,93,0.00,,,0.00,WUHU216HW,2013-07-24 10:40:00,
2013-07-24 06:45:00,48.6,46.7,29.94,North,0,0.0,0.0,93,0.00,,,0.00,WUHU216HW,2013-07-24 10:45:00,
2013-07-24 06:50:00,48.4,46.8,29.94,North,0,0.0,0.0,94,0.00,,,0.00,WUHU216HW,2013-07-24 10:50:00,
2013-07-24 06:55:00,48.4,46.5,29.94,North,0,0.0,0.0,93,0.00,,,0.00,WUHU216HW,2013-07-24 10:55:00,
2013-07-24 07:00:00,48.6,46.7,29.94,North,0,0.0,0.0,93,0.00,,,0.00,WUHU216HW,2013-07-24 11:00:00,
2013-07-24 07:05:00,48.8,47.2,29.94,North,0,0.0,0.0,94,0.00,,,0.00,WUHU216HW,2013-07-24 11:05:00,
2013-07-24 07:10:00,49.1,47.5,29.94,North,0,0.0,0.0,94,0.00,,,0.00,WUHU216HW,2013-07-24 11:10:00,
2013-07-24 07:16:00,49.3,47.7,29.95,North,0,0.0,0.0,94,0.00,,,0.00,WUHU216HW,2013-07-24 11:16:00,
2013-07-24 07:21:00,49.7,48.4,29.95,NW,324,0.4,0.7,96,0.00,,,0.00,WUHU216HW,2013-07-24 11:21:00,
2013-07-24 07:26:00,50.0,48.7,29.95,North,5,0.4,0.7,96,0.00,,,0.00,WUHU216HW,2013-07-24 11:26:00,
2013-07-24 07:31:00,50.4,49.1,29.94,NNE,19,0.7,1.3,96,0.00,,,0.00,WUHU216HW,2013-07-24 11:31:00,
2013-07-24 07:36:00,50.8,49.5,29.94,North,0,0.5,0.7,96,0.00,,,0.00,WUHU216HW,2013-07-24 11:36:00,
2013-07-24 07:41:00,51.3,50.0,29.94,North,0,0.3,1.6,96,0.00,,,0.00,WUHU216HW,2013-07-24 11:41:00,
2013-07-24 07:46:00,51.5,49.9,29.94,East,90,0.1,0.4,94,0.00,,,0.00,WUHU216HW,2013-07-24 11:46:00,
2013-07-24 07:51:00,51.8,50.2,29.94,NE,45,0.8,1.3,94,0.00,,,0.00,WUHU216HW,2013-07-24 11:51:00,
2013-07-24 07:56:00,52.0,50.4,29.95,North,4,1.5,2.0,94,0.00,,,0.00,WUHU216HW,2013-07-24 11:56:00,
2013-07-24 08:01:00,52.4,50.8,29.95,East,89,0.7,1.8,94,0.00,,,0.00,WUHU216HW,2013-07-24 12:01:00,
2013-07-24 08:06:00,52.7,51.1,29.96,North,11,1.5,2.7,94,0.00,,,0.00,WUHU216HW,2013-07-24 12:06:00,
2013-07-24 08:11:00,53.1,51.2,29.96,NNE,20,2.5,4.5,93,0.00,,,0.00,WUHU216HW,2013-07-24 12:11:00,
2013-07-24 08:16:00,53.5,51.6,29.96,East,100,1.3,2.5,93,0.00,,,0.00,WUHU216HW,2013-07-24 12:16:00,
2013-07-24 08:21:00,53.6,51.7,29.96,NNE,31,0.9,1.1,93,0.00,,,0.00,WUHU216HW,2013-07-24 12:21:00,
2013-07-24 08:26:00,54.2,52.3,29.96,NE,54,2.1,2.7,93,0.00,,,0.00,WUHU216HW,2013-07-24 12:26:00,
2013-07-24 08:31:00,54.4,52.1,29.96,North,350,2.8,5.1,92,0.00,,,0.00,WUHU216HW,2013-07-24 12:31:00,
2013-07-24 08:36:00,54.7,52.4,29.96,NE,53,2.2,4.7,92,0.00,,,0.00,WUHU216HW,2013-07-24 12:36:00,
2013-07-24 08:41:00,55.1,52.8,29.96,NNE,15,3.1,4.0,92,0.00,,,0.00,WUHU216HW,2013-07-24 12:41:00,
2013-07-24 08:47:00,55.4,52.8,29.96,NNE,12,4.3,7.2,91,0.00,,,0.00,WUHU216HW,2013-07-24 12:47:00,
2013-07-24 08:52:00,55.8,53.2,29.96,NNE,13,2.2,3.4,91,0.00,,,0.00,WUHU216HW,2013-07-24 12:52:00,
2013-07-24 08:57:00,56.5,53.9,29.97,NNE,16,3.6,5.1,91,0.00,,,0.00,WUHU216HW,2013-07-24 12:57:00,
2013-07-24 09:02:00,57.1,54.1,29.97,East,83,4.7,5.8,90,0.00,,,0.00,WUHU216HW,2013-07-24 13:02:00,
2013-07-24 09:07:00,57.4,54.4,29.97,ENE,69,4.0,4.9,90,0.00,,,0.00,WUHU216HW,2013-07-24 13:07:00,
2013-07-24 09:12:00,58.0,54.7,29.97,North,10,2.9,4.9,89,0.00,,,0.00,WUHU216HW,2013-07-24 13:12:00,
2013-07-24 09:17:00,58.5,54.8,29.98,NE,37,2.6,3.4,88,0.00,,,0.00,WUHU216HW,2013-07-24 13:17:00,
2013-07-24 09:22:00,59.2,55.5,29.98,East,80,4.3,6.3,88,0.00,,,0.00,WUHU216HW,2013-07-24 13:22:00,
2013-07-24 09:27:00,59.6,55.6,29.98,NNE,16,3.5,4.3,87,0.00,,,0.00,WUHU216HW,2013-07-24 13:27:00,
2013-07-24 09:32:00,59.4,55.0,29.98,North,9,3.4,4.7,85,0.00,,,0.00,WUHU216HW,2013-07-24 13:32:00,
2013-07-24 09:37:00,59.2,54.8,29.98,NNE,28,1.9,4.5,85,0.00,,,0.00,WUHU216HW,2013-07-24 13:37:00,
2013-07-24 09:42:00,59.2,54.8,29.98,ESE,102,4.0,4.5,85,0.00,,,0.00,WUHU216HW,2013-07-24 13:42:00,
2013-07-24 09:47:00,59.0,54.6,29.97,NE,42,1.2,1.8,85,0.00,,,0.00,WUHU216HW,2013-07-24 13:47:00,
2013-07-24 09:52:00,59.4,55.0,29.98,North,353,3.4,3.8,85,0.00,,,0.00,WUHU216HW,2013-07-24 13:52:00,
2013-07-24 09:57:00,59.8,55.4,29.98,NNE,16,2.6,3.4,85,0.00,,,0.00,WUHU216HW,2013-07-24 13:57:00,
2013-07-24 10:03:00,60.8,56.0,29.98,East,98,3.1,4.7,84,0.00,,,0.00,WUHU216HW,2013-07-24 14:03:00,
2013-07-24 10:08:00,61.2,56.1,29.98,East,93,5.4,6.5,83,0.00,,,0.00,WUHU216HW,2013-07-24 14:08:00,
2013-07-24 10:13:00,62.3,56.4,29.98,ESE,117,8.6,11.0,81,0.00,,,0.00,WUHU216HW,2013-07-24 14:13:00,
2013-07-24 10:18:00,63.0,57.1,29.98,East,89,2.6,5.6,81,0.00,,,0.00,WUHU216HW,2013-07-24 14:18:00,
2013-07-24 10:23:00,63.7,57.8,29.99,ESE,113,3.2,4.3,81,0.00,,,0.00,WUHU216HW,2013-07-24 14:23:00,
2013-07-24 10:28:00,64.4,57.7,29.99,East,97,4.5,6.0,79,0.00,,,0.00,WUHU216HW,2013-07-24 14:28:00,
2013-07-24 10:33:00,64.6,57.5,29.99,East,85,3.3,5.1,78,0.00,,,0.00,WUHU216HW,2013-07-24 14:33:00,
2013-07-24 10:38:00,63.7,56.3,29.99,NNE,24,1.7,1.8,76,0.00,,,0.00,WUHU216HW,2013-07-24 14:38:00,
2013-07-24 10:43:00,63.2,56.2,29.99,North,9,3.3,4.3,78,0.00,,,0.00,WUHU216HW,2013-07-24 14:43:00,
2013-07-24 10:48:00,63.9,56.8,29.99,NE,56,2.1,2.9,78,0.00,,,0.00,WUHU216HW,2013-07-24 14:48:00,
2013-07-24 10:53:00,65.5,57.6,29.99,ENE,74,3.1,4.7,75,0.00,,,0.00,WUHU216HW,2013-07-24 14:53:00,
2013-07-24 10:58:00,67.0,59.1,29.99,East,91,5.5,7.6,75,0.00,,,0.00,WUHU216HW,2013-07-24 14:58:00,
2013-07-24 11:03:00,67.1,57.9,29.99,ENE,72,3.2,5.6,72,0.00,,,0.00,WUHU216HW,2013-07-24 15:03:00,
2013-07-24 11:08:00,67.3,57.7,29.99,East,100,4.0,5.1,71,0.00,,,0.00,WUHU216HW,2013-07-24 15:08:00,
2013-07-24 11:13:00,67.5,57.4,29.99,NNE,15,2.8,3.8,70,0.00,,,0.00,WUHU216HW,2013-07-24 15:13:00,
2013-07-24 11:18:00,67.7,56.7,29.99,ENE,59,2.4,4.0,67,0.00,,,0.00,WUHU216HW,2013-07-24 15:18:00,
2013-07-24 11:23:00,67.0,56.9,29.99,NNE,13,1.0,1.8,70,0.00,,,0.00,WUHU216HW,2013-07-24 15:23:00,
2013-07-24 11:28:00,67.5,57.4,29.99,North,8,3.2,4.0,70,0.00,,,0.00,WUHU216HW,2013-07-24 15:28:00,
2013-07-24 11:33:00,67.5,57.9,29.99,WSW,240,1.7,1.8,71,0.00,,,0.00,WUHU216HW,2013-07-24 15:33:00,
2013-07-24 11:38:00,68.4,58.7,29.99,ENE,60,2.6,2.9,71,0.00,,,0.00,WUHU216HW,2013-07-24 15:38:00,
2013-07-24 11:43:00,69.1,59.0,29.99,East,84,1.7,2.0,70,0.00,,,0.00,WUHU216HW,2013-07-24 15:43:00,
2013-07-24 11:48:00,69.8,58.7,29.99,NE,56,3.6,4.3,67,0.00,,,0.00,WUHU216HW,2013-07-24 15:48:00,
2013-07-24 11:53:00,69.1,57.6,30.00,NE,36,4.3,5.6,66,0.00,,,0.00,WUHU216HW,2013-07-24 15:53:00,
2013-07-24 11:58:00,68.6,58.0,30.00,NNE,25,0.6,2.9,69,0.00,,,0.00,WUHU216HW,2013-07-24 15:58:00,
2013-07-24 12:04:00,68.4,57.4,29.99,North,0,2.5,3.6,67,0.00,,,0.00,WUHU216HW,2013-07-24 16:04:00,
2013-07-24 12:09:00,68.4,56.9,30.00,ENE,70,3.6,5.4,66,0.00,,,0.00,WUHU216HW,2013-07-24 16:09:00,
2013-07-24 12:14:00,68.2,55.8,30.00,ENE,71,3.5,5.8,64,0.00,,,0.00,WUHU216HW,2013-07-24 16:14:00,
2013-07-24 12:19:00,68.6,56.6,30.00,ENE,72,5.8,7.6,65,0.00,,,0.00,WUHU216HW,2013-07-24 16:19:00,
2013-07-24 12:24:00,68.2,56.7,30.00,East,92,2.3,2.5,66,0.00,,,0.00,WUHU216HW,2013-07-24 16:24:00,
2013-07-24 12:29:00,68.0,56.5,30.00,NNE,29,3.5,5.6,66,0.00,,,0.00,WUHU216HW,2013-07-24 16:29:00,
2013-07-24 12:34:00,67.7,55.8,30.00,North,350,2.2,3.1,65,0.00,,,0.00,WUHU216HW,2013-07-24 16:34:00,
2013-07-24 12:39:00,68.0,56.5,30.00,NNE,22,2.2,4.3,66,0.00,,,0.00,WUHU216HW,2013-07-24 16:39:00,
2013-07-24 12:44:00,68.4,56.0,30.00,ENE,77,5.2,7.6,64,0.00,,,0.00,WUHU216HW,2013-07-24 16:44:00,
2013-07-24 12:49:00,68.9,56.9,30.00,East,89,3.2,5.1,65,0.00,,,0.00,WUHU216HW,2013-07-24 16:49:00,
2013-07-24 12:54:00,69.5,57.0,30.00,East,92,2.2,3.8,64,0.00,,,0.00,WUHU216HW,2013-07-24 16:54:00,
2013-07-24 12:59:00,69.8,57.3,30.00,East,86,3.8,4.7,64,0.00,,,0.00,WUHU216HW,2013-07-24 16:59:00,
2013-07-24 13:04:00,70.0,58.0,30.00,ESE,106,4.7,6.3,65,0.00,,,0.00,WUHU216HW,2013-07-24 17:04:00,
2013-07-24 13:09:00,69.7,55.7,30.00,East,88,3.0,3.8,61,0.00,,,0.00,WUHU216HW,2013-07-24 17:09:00,
2013-07-24 13:14:00,70.0,56.0,30.00,NNE,13,3.5,5.1,61,0.00,,,0.00,WUHU216HW,2013-07-24 17:14:00,
2013-07-24 13:19:00,70.2,56.7,30.00,East,85,4.3,6.0,62,0.00,,,0.00,WUHU216HW,2013-07-24 17:19:00,
2013-07-24 13:24:00,70.4,56.9,30.00,NNE,17,3.6,4.5,62,0.00,,,0.00,WUHU216HW,2013-07-24 17:24:00,
2013-07-24 13:30:00,71.1,57.5,30.00,NE,56,2.7,4.0,62,0.00,,,0.00,WUHU216HW,2013-07-24 17:30:00,
2013-07-24 13:35:00,71.3,57.2,30.00,NE,40,2.4,3.4,61,0.00,,,0.00,WUHU216HW,2013-07-24 17:35:00,
2013-07-24 13:40:00,71.6,57.5,29.99,ESE,102,3.7,4.7,61,0.00,,,0.00,WUHU216HW,2013-07-24 17:40:00,
2013-07-24 13:45:00,71.6,57.5,30.00,North,9,4.2,5.1,61,0.00,,,0.00,WUHU216HW,2013-07-24 17:45:00,
2013-07-24 13:50:00,71.6,57.0,30.00,ENE,78,2.6,4.5,60,0.00,,,0.00,WUHU216HW,2013-07-24 17:50:00,
2013-07-24 13:55:00,72.5,57.8,29.99,ESE,105,3.8,5.8,60,0.00,,,0.00,WUHU216HW,2013-07-24 17:55:00,
2013-07-24 14:00:00,73.1,58.9,29.99,SE,130,2.7,3.8,61,0.00,,,0.00,WUHU216HW,2013-07-24 18:00:00,
2013-07-24 14:05:00,74.0,59.8,29.99,East,82,2.3,2.7,61,0.00,,,0.00,WUHU216HW,2013-07-24 18:05:00,
2013-07-24 14:10:00,72.4,57.7,29.99,SE,144,1.2,1.8,60,0.00,,,0.00,WUHU216HW,2013-07-24 18:10:00,
2013-07-24 14:15:00,71.3,57.2,29.99,NE,38,3.0,4.0,61,0.00,,,0.00,WUHU216HW,2013-07-24 18:15:00,
2013-07-24 14:20:00,71.5,57.4,29.99,North,355,2.2,2.5,61,0.00,,,0.00,WUHU216HW,2013-07-24 18:20:00,
2013-07-24 14:25:00,71.6,56.4,29.98,North,8,2.7,4.3,58,0.00,,,0.00,WUHU216HW,2013-07-24 18:25:00,
2013-07-24 14:30:00,71.5,56.3,29.98,ENE,75,3.8,7.6,58,0.00,,,0.00,WUHU216HW,2013-07-24 18:30:00,
2013-07-24 14:35:00,71.5,56.9,29.98,East,96,5.2,6.5,60,0.00,,,0.00,WUHU216HW,2013-07-24 18:35:00,
2013-07-24 14:40:00,71.8,57.2,29.98,North,7,1.7,2.5,60,0.00,,,0.00,WUHU216HW,2013-07-24 18:40:00,
2013-07-24 14:45:00,72.5,58.9,29.98,West,274,1.7,2.2,62,0.00,,,0.00,WUHU216HW,2013-07-24 18:45:00,
2013-07-24 14:51:00,73.8,59.6,29.98,NNE,26,3.5,4.7,61,0.00,,,0.00,WUHU216HW,2013-07-24 18:51:00,
2013-07-24 14:56:00,74.5,59.7,29.98,NNE,26,0.8,1.3,60,0.00,,,0.00,WUHU216HW,2013-07-24 18:56:00,
2013-07-24 15:01:00,74.5,59.7,29.98,NNW,341,3.0,3.4,60,0.00,,,0.00,WUHU216HW,2013-07-24 19:01:00,
2013-07-24 15:06:00,74.9,60.1,29.98,North,2,2.2,3.8,60,0.00,,,0.00,WUHU216HW,2013-07-24 19:06:00,
2013-07-24 15:11:00,75.2,59.8,29.98,ENE,72,2.5,3.6,58,0.00,,,0.00,WUHU216HW,2013-07-24 19:11:00,
2013-07-24 15:16:00,75.6,60.2,29.98,North,4,1.2,2.2,58,0.00,,,0.00,WUHU216HW,2013-07-24 19:16:00,
2013-07-24 15:21:00,76.0,60.0,29.98,ENE,76,3.6,4.5,57,0.00,,,0.00,WUHU216HW,2013-07-24 19:21:00,
2013-07-24 15:26:00,75.1,58.0,29.99,North,1,2.7,3.4,55,0.00,,,0.00,WUHU216HW,2013-07-24 19:26:00,
2013-07-24 15:31:00,74.9,59.0,29.99,NE,56,0.9,2.5,57,0.00,,,0.00,WUHU216HW,2013-07-24 19:31:00,
2013-07-24 15:36:00,75.2,59.3,29.99,East,101,3.2,4.5,57,0.00,,,0.00,WUHU216HW,2013-07-24 19:36:00,
2013-07-24 15:42:00,74.3,57.9,29.98,North,9,2.7,4.0,56,0.00,,,0.00,WUHU216HW,2013-07-24 19:42:00,
2013-07-24 15:47:00,73.3,56.9,29.98,ESE,102,2.4,4.7,56,0.00,,,0.00,WUHU216HW,2013-07-24 19:47:00,
2013-07-24 15:52:00,73.1,57.8,29.98,SE,135,0.6,1.6,58,0.00,,,0.00,WUHU216HW,2013-07-24 19:52:00,
2013-07-24 15:57:00,73.4,57.6,29.98,ENE,70,4.1,5.4,57,0.00,,,0.00,WUHU216HW,2013-07-24 19:57:00,
2013-07-24 16:02:00,72.5,56.7,29.98,North,7,1.3,1.8,57,0.00,,,0.00,WUHU216HW,2013-07-24 20:02:00,
2013-07-24 16:07:00,72.2,57.5,29.99,NNW,343,1.3,1.8,60,0.00,,,0.00,WUHU216HW,2013-07-24 20:07:00,
2013-07-24 16:12:00,73.3,58.6,29.98,ENE,75,0.8,1.1,60,0.00,,,0.00,WUHU216HW,2013-07-24 20:12:00,
2013-07-24 16:18:00,74.9,59.0,29.98,ESE,108,4.0,4.7,57,0.00,,,0.00,WUHU216HW,2013-07-24 20:18:00,
2013-07-24 16:23:00,74.3,58.4,29.98,East,97,2.0,2.7,57,0.00,,,0.00,WUHU216HW,2013-07-24 20:23:00,
2013-07-24 16:28:00,73.8,59.0,29.98,NNE,22,0.5,0.9,60,0.00,,,0.00,WUHU216HW,2013-07-24 20:28:00,
2013-07-24 16:33:00,74.5,58.0,29.98,East,90,3.4,4.7,56,0.00,,,0.00,WUHU216HW,2013-07-24 20:33:00,
2013-07-24 16:38:00,73.4,57.0,29.98,ENE,67,4.3,5.8,56,0.00,,,0.00,WUHU216HW,2013-07-24 20:38:00,
2013-07-24 16:43:00,72.4,57.2,29.98,ESE,106,1.8,2.2,58,0.00,,,0.00,WUHU216HW,2013-07-24 20:43:00,
2013-07-24 16:48:00,73.1,57.3,29.98,North,3,3.6,4.5,57,0.00,,,0.00,WUHU216HW,2013-07-24 20:48:00,
2013-07-24 16:54:00,74.2,58.9,29.98,North,11,1.5,2.5,58,0.00,,,0.00,WUHU216HW,2013-07-24 20:54:00,
2013-07-24 16:59:00,74.5,58.0,29.98,NNE,21,1.5,2.0,56,0.00,,,0.00,WUHU216HW,2013-07-24 20:59:00,
2013-07-24 17:04:00,74.9,58.4,29.98,ESE,107,4.1,4.7,56,0.00,,,0.00,WUHU216HW,2013-07-24 21:04:00,
2013-07-24 17:09:00,74.5,58.0,29.98,East,90,3.1,4.3,56,0.00,,,0.00,WUHU216HW,2013-07-24 21:09:00,
2013-07-24 17:14:00,73.1,56.7,29.98,East,89,4.1,4.7,56,0.00,,,0.00,WUHU216HW,2013-07-24 21:14:00,
2013-07-24 17:19:00,72.4,57.2,29.98,East,99,2.9,3.6,58,0.00,,,0.00,WUHU216HW,2013-07-24 21:19:00,
2013-07-24 17:24:00,73.6,57.8,29.98,NNW,334,1.1,1.1,57,0.00,,,0.00,WUHU216HW,2013-07-24 21:24:00,
2013-07-24 17:29:00,73.8,57.4,29.98,East,80,2.3,2.7,56,0.00,,,0.00,WUHU216HW,2013-07-24 21:29:00,
2013-07-24 17:34:00,73.8,57.9,29.98,ESE,105,2.3,2.5,57,0.00,,,0.00,WUHU216HW,2013-07-24 21:34:00,
2013-07-24 17:39:00,73.8,57.9,29.98,ESE,108,2.5,3.4,57,0.00,,,0.00,WUHU216HW,2013-07-24 21:39:00,
2013-07-24 17:44:00,74.0,58.1,29.98,NE,44,2.0,2.5,57,0.00,,,0.00,WUHU216HW,2013-07-24 21:44:00,
2013-07-24 17:49:00,74.2,57.8,29.97,SE,129,2.4,3.4,56,0.00,,,0.00,WUHU216HW,2013-07-24 21:49:00,
2013-07-24 17:54:00,73.8,57.9,29.98,East,98,3.7,5.4,57,0.00,,,0.00,WUHU216HW,2013-07-24 21:54:00,
2013-07-24 18:00:00,73.6,57.8,29.98,East,101,2.3,3.6,57,0.00,,,0.00,WUHU216HW,2013-07-24 22:00:00,
2013-07-24 18:05:00,73.1,57.3,29.97,ESE,118,2.5,2.5,57,0.00,,,0.00,WUHU216HW,2013-07-24 22:05:00,
2013-07-24 18:10:00,74.5,59.7,29.97,SE,144,1.2,2.0,60,0.00,,,0.00,WUHU216HW,2013-07-24 22:10:00,
2013-07-24 18:15:00,75.4,59.5,29.97,SE,125,1.6,2.0,57,0.00,,,0.00,WUHU216HW,2013-07-24 22:15:00,
2013-07-24 18:20:00,76.0,58.3,29.98,ESE,102,4.1,5.8,54,0.00,,,0.00,WUHU216HW,2013-07-24 22:20:00,
2013-07-24 18:25:00,74.7,57.7,29.97,East,90,2.8,4.0,55,0.00,,,0.00,WUHU216HW,2013-07-24 22:25:00,
2013-07-24 18:30:00,74.7,57.7,29.97,ENE,72,2.2,3.4,55,0.00,,,0.00,WUHU216HW,2013-07-24 22:30:00,
2013-07-24 18:35:00,74.0,57.6,29.97,ESE,113,1.0,1.3,56,0.00,,,0.00,WUHU216HW,2013-07-24 22:35:00,
2013-07-24 18:40:00,73.8,57.4,29.97,NE,44,1.1,1.8,56,0.00,,,0.00,WUHU216HW,2013-07-24 22:40:00,
2013-07-24 18:45:00,73.6,57.2,29.97,ESE,119,0.6,1.1,56,0.00,,,0.00,WUHU216HW,2013-07-24 22:45:00,
2013-07-24 18:50:00,73.8,57.9,29.97,East,99,2.3,3.4,57,0.00,,,0.00,WUHU216HW,2013-07-24 22:50:00,
2013-07-24 18:55:00,73.4,57.0,29.98,East,100,2.2,2.2,56,0.00,,,0.00,WUHU216HW,2013-07-24 22:55:00,
2013-07-24 19:01:00,72.9,57.1,29.97,ENE,78,1.2,1.3,57,0.00,,,0.00,WUHU216HW,2013-07-24 23:01:00,
2013-07-24 19:06:00,72.5,57.3,29.97,ENE,67,2.6,4.3,58,0.00,,,0.00,WUHU216HW,2013-07-24 23:06:00,
2013-07-24 19:11:00,72.0,56.3,29.97,East,98,3.6,4.3,57,0.00,,,0.00,WUHU216HW,2013-07-24 23:11:00,
2013-07-24 19:16:00,71.5,56.3,29.97,East,79,0.3,0.7,58,0.00,,,0.00,WUHU216HW,2013-07-24 23:16:00,
2013-07-24 19:21:00,70.6,55.5,29.98,ESE,113,0.7,1.1,58,0.00,,,0.00,WUHU216HW,2013-07-24 23:21:00,
2013-07-24 19:26:00,70.2,55.6,29.97,East,90,1.1,1.8,60,0.00,,,0.00,WUHU216HW,2013-07-24 23:26:00,
2013-07-24 19:31:00,70.0,55.5,29.98,NNE,17,0.4,0.9,60,0.00,,,0.00,WUHU216HW,2013-07-24 23:31:00,
2013-07-24 19:36:00,69.8,55.3,29.98,ESE,113,0.2,1.1,60,0.00,,,0.00,WUHU216HW,2013-07-24 23:36:00,
2013-07-24 19:41:00,69.7,55.2,29.98,North,350,2.7,2.7,60,0.00,,,0.00,WUHU216HW,2013-07-24 23:41:00,
2013-07-24 19:46:00,69.5,55.5,29.98,East,85,3.5,4.0,61,0.00,,,0.00,WUHU216HW,2013-07-24 23:46:00,
2013-07-24 19:51:00,68.9,54.9,29.98,East,90,2.3,3.4,61,0.00,,,0.00,WUHU216HW,2013-07-24 23:51:00,
2013-07-24 19:56:00,68.6,55.2,29.98,East,83,1.1,1.8,62,0.00,,,0.00,WUHU216HW,2013-07-24 23:56:00,
2013-07-24 20:01:00,68.2,54.8,29.98,East,85,1.3,2.0,62,0.00,,,0.00,WUHU216HW,2013-07-25 00:01:00,
2013-07-24 20:07:00,67.9,55.0,29.98,ESE,113,0.0,0.2,63,0.00,,,0.00,WUHU216HW,2013-07-25 00:07:00,
2013-07-24 20:12:00,67.3,54.9,29.98,ENE,68,0.4,0.4,64,0.00,,,0.00,WUHU216HW,2013-07-25 00:12:00,
2013-07-24 20:17:00,67.0,55.6,29.98,NE,45,1.6,2.5,66,0.00,,,0.00,WUHU216HW,2013-07-25 00:17:00,
2013-07-24 20:22:00,66.4,55.5,29.99,NNE,33,1.2,1.6,67,0.00,,,0.00,WUHU216HW,2013-07-25 00:22:00,
2013-07-24 20:27:00,66.1,55.2,29.99,SE,146,1.7,1.8,67,0.00,,,0.00,WUHU216HW,2013-07-25 00:27:00,
2013-07-24 20:32:00,65.7,55.2,29.99,North,10,1.2,2.5,69,0.00,,,0.00,WUHU216HW,2013-07-25 00:32:00,
2013-07-24 20:37:00,65.3,55.3,29.99,East,98,0.9,1.1,70,0.00,,,0.00,WUHU216HW,2013-07-25 00:37:00,
2013-07-24 20:42:00,65.0,55.9,29.99,North,0,0.1,0.4,72,0.00,,,0.00,WUHU216HW,2013-07-25 00:42:00,
2013-07-24 20:47:00,64.3,55.6,29.99,North,0,0.3,0.4,73,0.00,,,0.00,WUHU216HW,2013-07-25 00:47:00,
2013-07-24 20:52:00,63.7,55.4,30.00,North,0,0.0,0.0,74,0.00,,,0.00,WUHU216HW,2013-07-25 00:52:00,
2013-07-24 20:57:00,63.4,55.6,30.00,North,0,0.0,0.0,75,0.00,,,0.00,WUHU216HW,2013-07-25 00:57:00,
2013-07-24 21:02:00,62.8,55.0,30.00,North,0,0.0,0.0,75,0.00,,,0.00,WUHU216HW,2013-07-25 01:02:00,
2013-07-24 21:07:00,62.5,55.1,30.00,North,0,0.0,0.0,76,0.00,,,0.00,WUHU216HW,2013-07-25 01:07:00,
2013-07-24 21:12:00,62.1,54.7,30.00,North,0,0.0,0.0,76,0.00,,,0.00,WUHU216HW,2013-07-25 01:12:00,
2013-07-24 21:18:00,61.7,54.7,30.00,North,0,0.0,0.0,78,0.00,,,0.00,WUHU216HW,2013-07-25 01:18:00,
2013-07-24 21:23:00,61.2,54.2,30.00,North,0,0.0,0.0,78,0.00,,,0.00,WUHU216HW,2013-07-25 01:23:00,
2013-07-24 21:28:00,60.8,53.8,30.00,North,0,0.0,0.0,78,0.00,,,0.00,WUHU216HW,2013-07-25 01:28:00,
2013-07-24 21:33:00,60.3,53.7,30.00,North,0,0.0,0.0,79,0.00,,,0.00,WUHU216HW,2013-07-25 01:33:00,
2013-07-24 21:38:00,59.9,53.7,30.00,North,0,0.0,0.0,80,0.00,,,0.00,WUHU216HW,2013-07-25 01:38:00,
2013-07-24 21:43:00,59.6,53.8,30.00,North,0,0.0,0.0,81,0.00,,,0.00,WUHU216HW,2013-07-25 01:43:00,
2013-07-24 21:48:00,59.2,53.8,30.01,North,0,0.0,0.0,82,0.00,,,0.00,WUHU216HW,2013-07-25 01:48:00,
2013-07-24 21:53:00,58.9,53.5,30.00,North,0,0.0,0.0,82,0.00,,,0.00,WUHU216HW,2013-07-25 01:53:00,
2013-07-24 21:58:00,58.5,53.4,30.01,North,0,0.0,0.0,83,0.00,,,0.00,WUHU216HW,2013-07-25 01:58:00,
2013-07-24 22:03:00,58.1,53.0,30.01,North,0,0.0,0.0,83,0.00,,,0.00,WUHU216HW,2013-07-25 02:03:00,
2013-07-24 22:08:00,57.8,53.1,30.01,North,0,0.0,0.0,84,0.00,,,0.00,WUHU216HW,2013-07-25 02:08:00,
2013-07-24 22:13:00,57.4,53.1,30.01,North,0,0.0,0.0,85,0.00,,,0.00,WUHU216HW,2013-07-25 02:13:00,
2013-07-24 22:18:00,57.2,52.9,30.01,North,0,0.0,0.0,85,0.00,,,0.00,WUHU216HW,2013-07-25 02:18:00,
2013-07-24 22:24:00,56.9,52.9,30.01,North,0,0.0,0.0,87,0.00,,,0.00,WUHU216HW,2013-07-25 02:24:00,
2013-07-24 22:29:00,56.5,52.5,30.01,North,0,0.0,0.0,87,0.00,,,0.00,WUHU216HW,2013-07-25 02:29:00,
2013-07-24 22:34:00,56.3,52.7,30.00,North,0,0.0,0.0,88,0.00,,,0.00,WUHU216HW,2013-07-25 02:34:00,
2013-07-24 22:39:00,56.2,52.9,30.01,North,0,0.0,0.0,89,0.00,,,0.00,WUHU216HW,2013-07-25 02:39:00,
2013-07-24 22:44:00,56.0,52.7,30.01,NE,45,0.1,0.4,89,0.00,,,0.00,WUHU216HW,2013-07-25 02:44:00,
2013-07-24 22:49:00,55.8,52.5,30.01,North,0,0.0,0.0,89,0.00,,,0.00,WUHU216HW,2013-07-25 02:49:00,
2013-07-24 22:54:00,55.6,52.3,30.01,North,0,0.0,0.0,89,0.00,,,0.00,WUHU216HW,2013-07-25 02:54:00,
2013-07-24 22:59:00,55.4,52.1,30.01,North,0,0.0,0.0,89,0.00,,,0.00,WUHU216HW,2013-07-25 02:59:00,
2013-07-24 23:04:00,55.3,52.4,30.01,North,0,0.0,0.0,90,0.00,,,0.00,WUHU216HW,2013-07-25 03:04:00,
2013-07-24 23:10:00,55.1,52.2,30.01,East,90,0.2,0.4,90,0.00,,,0.00,WUHU216HW,2013-07-25 03:10:00,
2013-07-24 23:15:00,54.9,52.0,30.01,East,90,0.2,0.4,90,0.00,,,0.00,WUHU216HW,2013-07-25 03:15:00,
2013-07-24 23:20:00,54.7,51.8,30.01,East,90,0.1,0.2,90,0.00,,,0.00,WUHU216HW,2013-07-25 03:20:00,
2013-07-24 23:25:00,54.5,51.6,30.01,North,0,0.0,0.0,90,0.00,,,0.00,WUHU216HW,2013-07-25 03:25:00,
2013-07-24 23:30:00,54.4,51.8,30.02,North,0,0.0,0.0,91,0.00,,,0.00,WUHU216HW,2013-07-25 03:30:00,
2013-07-24 23:35:00,54.4,51.8,30.01,East,90,0.2,0.2,91,0.00,,,0.00,WUHU216HW,2013-07-25 03:35:00,
2013-07-24 23:41:00,54.2,51.6,30.02,North,0,0.0,0.0,91,0.00,,,0.00,WUHU216HW,2013-07-25 03:41:00,
2013-07-24 23:46:00,54.0,51.4,30.01,North,0,0.0,0.0,91,0.00,,,0.00,WUHU216HW,2013-07-25 03:46:00,
2013-07-24 23:51:00,53.8,51.5,30.01,East,90,0.0,0.2,92,0.00,,,0.00,WUHU216HW,2013-07-25 03:51:00,
2013-07-24 23:56:00,53.8,51.5,30.02,North,0,0.0,0.0,92,0.00,,,0.00,WUHU216HW,2013-07-25 03:56:00,